SCP
0 0 0 0 0 0 0 0 0 -0 0 -0 0 0 0 0 0 0 0 0 0 0 0 -0 -0 -0 -0 -0 -0 0 0 0 0 0 0 0 0 0 0 0 0 0 0 0 0 0 0 0 0
0 0 0 0 0 0 0 0 0 0 0 0 0 0 0 0 0 0 0 0 0 0 0 0 0 0 0 0 0 0 0 0 0 0 0 0 0 0 0 0 0 0 0 0 0 0 0 0 0
0 0 0 0 0 0 0 0 0 0 0 0 0 0 0 0 0 0 0 0 0 0 0 0 0 0 0 0 0 0 0 0 0 0 0 0 0 0 0 0 0 0 0 0 0 0 0 0 -0
0 0 0 0 0 0 0 0 0 0 0 0 0 0 0 0 0 0 0 0 0 0 0 0 0 0 0 0 0 0 0 0 0 0 0 0 0 0 0 0 0 0 0 0 0 0 0 0 0
0 0 0 0 0 0 0 0 0 0 0 0 0 0 0 0 0 0 0 0 0 0 0 0 0 0 0 0 0 0 0 0 0 0 0 0 0 0 0 0 0 0 0 0 0 0 0 0 0
0 0 0 0 0 0 0 0 0 0 0 0 0 0 0 0 0 0 0 0 0 0 0 0 0 0 0 0 0 0 0 0 0 0 0 0 0 0 0 0 0 0 0 0 0 0 0 0 0
0 0 0 0 0 0 0 0 0 0 0 0 0 0 0 0 0 0 0 0 0 0 0 0 0 0 0 0 0 0 0 0 0 0 0 0 0 0 0 0 0 0 0 0 0 0 0 0 0
0 0 0 0 0 0 0 0 0 0 0 0 0 0 0 0 0 0 0 0 0 0 0 0 0 0 0 0 0 0 0 0 0 0 0 0 0 0 0 0 0 0 0 0 0 0 0 0 0
0 0 0 0 0 0 0 0 0 0 0 0 0 0 0 0 0 0 0 0 0 0 0 0 0 0 0 0 0 0 0 0 0 0 0 0 0 0 0 0 0 0 0 0 0 0 0 0 0
0 0 0 0 0 0 0 0 0 0 0 0 0 0 0 0 0 0 0 0 0 0 0 0 0 0 0 0 0 0 0 0 0 0 0 0 0 0 0 0 0 0 0 0 0 0 0 0 0
0 0 0 0 0 0 0 0 0 0 0 0 0 0 0 0 0 0 0 0 0 0 0 0 0 0 0 0 0 0 0 0 0 0 0 0 0 0 0 0 0 0 0 0 0 0 0 0 0
0 0 0 0 0 0 0 0 0 0 0 0 0 0 0 0 0 0 0 0 0 0 0 0 0 0 0 0 0 0 0 0 0 0 0 0 0 0 0 0 0 0 0 0 0 0 0 0 0
0 0 0 0 0 0 0 0 0 0 0 0 0 0 0 0 0 0 0 0 0 0 0 0 0 0 0 0 0 0 0 0 0 0 0 0 0 0 0 0 0 0 0 0 0 0 0 0 0
0 0 0 0 0 0 0 0 0 0 0 0 0 0 0 0 0 0 0 0 0 0 0 0 0 0 0 0 0 0 0 0 0 0 0 0 0 0 0 0 0 0 0 0 0 0 0 0 0
0 0 0 0 0 0 0 0 0 0 0 0 0 0 0 0 0 0 0 0 0 0 0 0 0 0 0 0 0 0 0 0 0 0 0 0 0 0 0 0 0 0 0 0 0 0 0 0 0
0 0 0 0 0 0 0 0 0 0 0 0 0 0 0 0 0 0 0 0 0 0 0 0 0 0 0 0 0 0 0 0 0 0 0 0 0 0 0 0 0 0 0 0 0 0 0 0 0
0 0 0 0 0 0 0 0 0 0 0 0 0 0 0 0 0 0 0 0 0 0 0 0 0 0 0 0 0 0 0 0 0 0 0 0 0 0 0 0 0 0 0 0 0 0 0 0 0
0 0 0 0 0 0 0 0 0 0 0 0 0 0 0 0 0 0 0 0 0 0 0 0 0 0 0 0 0 0 0 0 0 0 0 0 0 0 0 0 0 0 0 0 0 0 0 0 0
0 0 0 0 0 0 0 0 0 0 0 0 0 0 0 0 0 0 0 0 0 0 0 0 0 0 0 0 0 0 0 0 0 0 0 0 0 0 0 0 0 0 0 0 0 0 0 0 0
0 0 0 0 0 0 0 0 0 0 0 0 0 0 0 0 0 0 0 0 0 0 0 0 0 0 0 0 0 0 0 0 0 0 0 0 0 0 0 0 0 0 0 0 0 0 0 0 0
0 0 0 0 0 0 0 0 0 0 0 0 0 0 0 0 0 0 0 0 0 0 0 0 0 0 0 0 0 0 0 0 0 0 0 0 0 0 0 0 0 0 0 0 0 0 0 0 0
0 0 0 0 0 0 0 0 0 0 0 0 0 0 0 0 0 0 0 0 0 0 0 0 0 0 0 0 0 0 0 0 0 0 0 0 0 0 0 0 0 0 0 0 0 0 0 0 0
0 0 0 0 0 0 0 0 0 0 0 0 0 0 0 0 0 0 0 0 0 0 0 0 0 0 0 0 0 0 0 0 0 0 0 0 0 0 0 0 0 0 0 0 0 0 0 0 0
0 0 0 0 0 0 0 0 0 0 0 0 0 0 0 0 0 0 0 0 0 0 0 0 0 0 0 0 0 0 0 0 0 0 0 0 0 0 0 0 0 0 0 0 0 0 0 0 0
0 0 0 0 0 0 0 0 0 0 0 0 0 0 0 0 0 0 0 0 0 0 0 0 0 0 0 0 0 0 0 0 0 0 0 0 0 0 0 0 0 0 0 0 0 0 0 0 0
0 0 0 0 0 0 0 0 0 0 0 0 0 0 0 0 0 0 0 0 0 0 0 0 0 0 0 0 0 0 0 0 0 0 0 0 0 0 0 0 0 0 0 0 0 0 0 0 0
0 0 0 0 0 0 0 0 0 0 0 0 0 0 0 0 0 0 0 0 0 0 0 0 0 0 0 0 0 0 0 0 0 0 0 0 0 0 0 0 0 0 0 0 0 0 0 0 0
0 0 0 0 0 0 0 0 0 0 0 0 0 0 0 0 0 0 0 0 0 0 0 0 0 0 0 0 0 0 0 0 0 0 0 0 0 0 0 0 0 0 0 0 0 0 0 0 0
0 0 0 0 0 0 0 0 0 0 0 0 0 0 0 0 0 0 0 0 0 0 0 0 0 0 0 0 0 0 0 0 0 0 0 0 0 0 0 0 0 0 0 0 0 0 0 0 0
0 0 0 0 0 0 0 0 0 0 0 0 0 0 0 0 0 0 0 0 0 0 0 0 0 0 0 0 0 0 0 0 0 0 0 0 0 0 0 0 0 0 0 0 0 0 0 0 0
Wind_Speed_500mb
10 15 20 14 7 7 5 11 3 6 5 6 11 8 9 7 9 6 7 20 31 39 33 30 28 25 20 15 9 7 6 4 3 3 3 4 4 4 4 9 11 13 13 12 17 19 19 16 14
15 20 17 6 8 3 8 6 10 11 4 6 9 7 4 4 6 3 17 24 36 38 30 27 26 22 19 15 12 9 7 4 3 4 4 4 4 4 4 4 7 13 17 21 20 16 14 14 17
18 22 8 7 6 10 9 9 8 6 11 7 2 2 2 3 8 7 8 26 38 37 29 26 26 24 21 18 15 13 10 8 6 5 7 9 9 10 10 9 10 11 14 14 19 23 25 25 26
15 10 8 6 10 11 10 4 9 4 6 10 5 3 4 8 7 11 14 27 32 33 28 25 25 24 21 20 18 15 12 9 7 7 9 13 16 18 19 19 19 18 18 20 21 25 25 30 29
20 7 5 1 10 9 8 11 12 5 4 8 11 4 5 9 13 12 20 30 30 29 26 26 25 22 21 20 17 13 11 9 9 12 16 18 20 21 22 23 24 23 23 25 26 28 28 27 29
4 4 5 8 11 9 10 18 8 9 10 8 10 7 6 6 12 14 21 29 30 25 24 24 24 24 23 21 19 16 13 12 14 15 19 19 20 21 21 22 23 25 27 26 26 29 31 31 31
8 6 9 7 8 9 9 8 8 9 8 10 7 7 4 5 15 20 27 31 30 28 25 25 26 26 26 24 21 17 15 16 18 18 17 18 18 19 19 21 23 24 24 27 29 29 29 31 32
6 7 6 9 8 12 6 7 6 9 7 7 10 7 4 4 16 22 28 31 32 31 29 28 28 28 27 25 23 20 18 18 19 18 18 18 19 19 19 20 21 24 26 29 31 32 32 31 31
8 4 7 9 12 10 6 7 9 7 7 8 10 9 6 6 15 26 32 35 36 34 33 30 28 28 27 25 23 22 21 20 19 18 18 19 19 20 21 23 25 27 28 30 32 34 35 35 35
12 7 17 10 9 5 3 5 7 5 8 10 14 17 16 17 23 30 34 35 35 36 32 30 29 29 28 26 24 23 21 20 20 20 20 21 22 23 25 27 29 30 30 32 33 34 36 37 37
14 12 9 8 18 10 6 6 7 7 7 21 14 13 14 19 28 34 33 32 29 28 31 30 29 30 29 29 27 25 24 23 23 22 23 24 26 28 30 32 34 34 34 34 35 36 37 37 37
6 19 13 5 10 8 8 7 9 22 16 14 15 18 17 19 23 28 28 27 32 34 32 31 32 30 30 28 27 25 25 25 25 26 27 29 30 32 35 37 39 39 39 38 37 37 38 39 38
7 7 12 19 20 19 14 20 16 28 29 25 20 24 28 29 30 29 32 35 36 37 36 34 33 32 30 29 26 25 25 26 27 28 30 31 33 35 38 41 42 42 42 43 42 41 40 39 37
8 8 14 17 23 20 12 6 11 4 10 24 21 15 11 13 20 29 37 38 40 39 39 39 36 34 32 30 28 27 26 26 27 30 32 34 35 37 39 40 41 43 44 46 45 43 41 38 34
3 9 9 17 15 13 14 11 20 32 19 12 27 17 10 9 11 18 28 36 39 40 40 42 40 39 37 34 31 29 28 28 30 32 34 36 38 39 41 42 41 42 43 43 43 41 38 35 31
4 3 6 3 12 7 18 15 9 8 27 27 18 11 11 14 19 24 29 31 35 42 44 44 47 44 41 37 34 31 29 29 32 35 38 39 41 42 43 43 42 41 41 39 37 35 31 31 28
4 11 11 12 17 8 12 10 6 20 12 9 13 17 20 20 24 31 35 38 39 39 44 48 50 49 45 41 36 33 32 33 36 38 40 43 45 46 45 42 41 41 40 37 33 31 30 25 23
15 10 9 10 8 8 8 21 14 22 17 15 12 12 11 10 9 12 20 31 37 42 46 47 50 50 46 41 37 35 35 36 40 43 44 45 46 44 44 44 43 41 38 35 33 29 27 24 20
10 10 12 8 6 7 14 14 28 18 21 19 16 13 11 9 5 3 1 5 17 29 38 44 47 47 44 40 37 37 37 41 44 47 49 46 43 42 41 42 44 41 37 33 30 26 23 22 20
8 10 10 3 6 4 8 21 24 19 16 24 31 23 18 15 10 6 7 9 8 14 25 34 40 41 39 38 38 38 41 45 47 46 43 42 43 43 44 44 42 40 35 30 27 24 20 19 17
18 30 10 9 6 2 8 18 13 6 8 18 23 25 22 20 17 12 8 8 9 11 15 23 29 33 35 36 39 43 47 48 44 43 45 46 47 46 45 41 38 35 31 27 25 22 18 15 13
27 17 13 11 8 9 1 13 11 8 11 12 29 30 27 25 20 16 13 12 12 13 16 20 26 31 36 40 44 45 45 46 47 47 47 47 47 46 42 39 36 32 30 26 24 22 20 17 13
4 9 10 7 8 4 7 2 9 4 11 21 22 36 32 27 21 16 15 14 15 17 21 25 30 33 36 39 41 44 45 47 47 46 44 43 43 42 38 35 33 30 28 27 26 24 21 18 16
22 13 13 9 5 7 15 14 11 12 14 6 17 41 38 29 19 17 16 15 17 20 23 27 30 32 36 40 43 42 41 42 42 41 40 39 38 37 34 32 30 29 28 27 26 24 22 19 17
11 17 5 4 7 13 2 4 27 9 11 8 20 47 39 26 21 17 15 16 18 20 23 26 29 31 36 38 40 39 37 38 37 35 34 34 34 33 32 32 32 32 30 29 27 25 22 21 21
23 15 12 16 11 4 2 15 13 7 4 7 32 43 33 25 17 12 13 15 19 22 24 26 28 30 34 35 35 37 35 34 33 33 33 33 33 34 36 37 37 35 33 32 29 26 24 24 24
11 10 8 13 3 1 9 13 17 9 2 3 25 33 30 23 16 11 7 8 11 14 19 24 27 28 29 31 33 34 34 34 34 36 35 35 36 36 39 39 36 34 34 32 29 27 26 27 27
7 17 8 3 13 9 8 11 12 11 17 14 11 28 29 23 17 11 7 4 7 12 17 21 25 26 26 29 31 33 32 33 32 33 33 34 35 35 34 31 30 31 31 29 29 27 26 27 22
10 9 6 8 6 10 4 12 11 12 24 30 18 38 34 25 18 12 7 3 5 10 15 20 24 25 23 26 27 27 26 28 27 28 29 29 28 28 29 29 30 28 26 27 26 25 24 22 21
3 9 10 9 11 1 2 11 2 9 7 18 32 38 32 24 18 11 5 6 9 12 15 19 22 23 24 23 23 23 22 24 23 22 22 23 22 24 26 28 27 24 23 24 27 25 24 21 13
Wind_Direction_500mb
169 154 147 142 77 65 253 254 264 242 235 189 148 161 194 146 169 205 194 172 170 178 183 193 198 196 195 188 188 174 173 200 228 256 281 282 280 277 266 244 223 221 218 191 205 214 210 216 227
162 152 148 123 96 101 262 246 231 226 220 152 143 155 180 214 185 219 158 175 172 181 188 196 193 187 185 191 186 182 181 193 236 281 309 316 309 308 303 281 254 241 241 249 246 240 252 248 240
165 161 157 101 128 187 217 214 231 278 198 185 204 222 229 197 187 180 177 175 173 182 188 195 193 189 188 188 187 189 194 198 217 254 289 307 321 320 315 300 284 271 261 262 267 261 254 253 247
165 157 71 107 219 252 207 214 214 286 207 217 216 264 224 199 166 179 192 179 178 184 193 195 193 191 191 189 188 193 196 208 234 268 291 305 308 308 306 300 293 287 282 276 274 276 261 251 259
175 141 75 206 247 258 246 249 249 245 259 194 185 243 227 216 210 195 188 183 184 188 193 195 195 195 195 196 197 205 216 238 264 287 295 300 301 300 300 298 296 293 289 285 281 275 276 275 268
166 108 93 236 248 254 262 230 218 220 222 183 189 185 223 202 184 184 179 184 187 203 204 204 201 201 202 207 211 219 234 256 272 283 288 290 291 295 297 295 292 291 288 285 279 276 273 273 273
152 104 203 211 249 291 235 183 211 204 192 215 178 167 208 206 186 181 180 188 197 202 209 208 208 209 212 219 226 235 249 264 274 280 284 290 293 294 293 294 293 290 289 287 285 283 278 275 272
199 100 162 230 211 262 201 194 199 188 210 175 191 221 169 153 196 192 191 196 202 208 211 212 214 215 220 228 236 246 256 266 274 279 283 285 292 298 299 298 294 292 291 288 285 283 280 277 273
172 77 217 237 161 241 190 181 190 181 177 191 213 215 230 265 214 204 202 204 208 213 215 215 219 223 227 234 242 250 257 262 266 273 280 286 290 293 296 299 299 297 291 286 284 282 280 277 274
152 162 219 210 199 239 237 222 193 192 177 217 224 243 257 251 228 220 217 216 217 219 221 224 226 229 233 241 249 255 261 265 270 276 282 287 291 294 297 299 299 298 295 291 288 284 283 280 276
177 204 201 249 221 208 201 257 231 168 231 234 223 223 255 242 223 222 224 227 235 232 229 231 232 236 240 245 249 255 261 268 274 280 284 290 295 299 301 303 304 302 298 293 290 288 285 282 279
203 231 218 208 209 196 204 214 245 224 226 254 222 248 243 239 229 226 228 236 236 234 235 233 233 235 240 244 249 257 266 273 276 280 285 289 293 298 303 304 304 302 299 296 292 288 284 282 279
228 249 204 236 232 234 238 238 237 257 254 243 228 252 256 250 248 244 241 242 241 240 239 238 238 239 241 245 252 262 268 272 275 278 281 283 287 292 297 300 302 301 300 299 297 293 286 281 277
193 223 265 266 248 237 208 246 195 247 155 198 203 197 201 226 238 236 239 242 244 245 240 239 241 241 242 244 250 256 261 268 275 281 283 284 286 290 293 295 298 299 300 300 299 296 291 286 279
184 297 294 234 232 224 190 260 229 232 210 235 196 163 165 203 227 234 236 236 238 245 244 241 240 240 240 242 249 255 262 272 281 285 285 285 287 291 294 296 297 298 300 299 297 295 293 291 289
166 103 266 184 153 207 165 254 173 171 178 163 183 244 251 246 250 244 236 234 232 232 230 235 235 237 239 242 247 252 262 274 283 288 288 289 290 292 295 297 299 300 301 299 295 291 288 288 288
254 230 206 305 196 146 189 263 160 165 157 192 251 272 273 264 252 246 241 237 231 228 224 226 230 232 234 238 244 251 262 275 284 289 290 292 293 294 296 297 299 300 300 298 295 292 290 287 283
198 211 236 220 194 181 209 255 257 223 256 278 267 261 252 244 234 238 243 241 238 232 226 219 224 227 231 236 243 252 263 276 286 290 291 291 290 291 294 296 297 298 297 294 294 293 293 292 290
158 180 184 202 163 196 232 251 262 242 250 246 238 219 198 180 159 118 104 212 222 222 218 216 220 224 230 237 245 254 266 278 285 289 291 290 289 289 290 292 295 295 293 290 287 287 288 292 297
170 179 210 264 150 192 317 268 256 251 232 222 211 200 190 177 162 130 92 93 135 186 200 208 214 223 231 239 249 260 272 279 284 286 284 285 285 286 288 289 289 288 287 286 284 284 288 293 297
216 222 174 214 162 128 315 271 227 225 183 186 190 189 186 185 181 171 148 124 124 148 180 202 215 225 235 245 257 268 275 279 280 280 281 282 283 283 284 284 282 281 279 278 277 278 281 280 285
225 193 162 156 136 238 23 281 272 207 218 203 191 187 182 177 173 172 178 191 199 202 205 214 225 236 247 256 264 269 272 276 278 279 279 278 278 279 278 277 275 272 272 270 269 272 273 276 271
245 82 127 106 109 26 192 284 262 110 244 209 195 191 182 176 176 184 197 208 216 222 231 239 246 252 258 263 268 272 275 277 279 280 278 275 274 273 271 269 267 266 266 266 265 266 268 268 269
152 88 63 56 101 227 193 176 242 190 213 162 167 188 182 183 193 198 208 216 226 234 242 249 255 261 266 271 273 276 278 278 279 278 276 273 270 268 267 264 261 262 264 262 262 262 263 265 265
148 134 135 179 194 230 299 165 249 240 216 203 173 177 179 187 189 189 205 223 237 244 250 256 262 267 270 272 275 276 276 278 279 276 274 270 267 265 263 262 261 262 262 258 258 259 260 263 264
175 185 170 194 190 187 68 229 250 215 137 130 170 167 174 182 188 204 222 230 238 247 256 260 265 270 272 273 273 274 275 276 277 276 274 271 268 264 263 265 263 261 257 255 255 256 260 265 270
174 199 112 101 54 112 202 273 278 149 75 135 154 169 175 175 174 177 188 218 231 243 254 261 266 267 269 270 272 274 275 277 275 274 273 272 270 269 268 265 262 257 252 251 254 258 263 270 273
194 144 126 170 158 208 244 276 247 203 199 193 194 184 174 172 169 164 168 206 252 264 266 271 270 269 271 271 272 272 274 275 274 276 277 274 274 272 270 261 255 252 250 251 254 259 265 268 270
154 172 168 111 163 188 213 251 214 214 187 188 192 184 176 175 175 174 176 216 283 290 287 282 277 275 273 272 272 272 271 274 278 279 278 275 272 273 266 261 256 256 256 254 256 257 257 257 251
92 148 159 169 189 216 108 277 172 245 244 179 184 177 175 176 182 188 216 278 292 294 300 294 286 281 274 273 273 273 275 280 284 280 279 278 279 275 271 261 255 257 260 258 255 251 242 234 228
Wind_Speed_850mb
10 15 20 14 7 7 5 11 3 6 5 6 11 8 9 7 9 6 7 20 31 39 33 30 28 25 20 15 9 7 6 4 3 3 3 4 4 4 4 9 11 13 13 12 17 19 19 16 14
15 20 17 6 8 3 8 6 10 11 4 6 9 7 4 4 6 3 17 24 36 38 30 27 26 22 19 15 12 9 7 4 3 4 4 4 4 4 4 4 7 13 17 21 20 16 14 14 17
18 22 8 7 6 10 9 9 8 6 11 7 2 2 2 3 8 7 8 26 38 37 29 26 26 24 21 18 15 13 10 8 6 5 7 9 9 10 10 9 10 11 14 14 19 23 25 25 26
15 10 8 6 10 11 10 4 9 4 6 10 5 3 4 8 7 11 14 27 32 33 28 25 25 24 21 20 18 15 12 9 7 7 9 13 16 18 19 19 19 18 18 20 21 25 25 30 29
20 7 5 1 10 9 8 11 12 5 4 8 11 4 5 9 13 12 20 30 30 29 26 26 25 22 21 20 17 13 11 9 9 12 16 18 20 21 22 23 24 23 23 25 26 28 28 27 29
4 4 5 8 11 9 10 18 8 9 10 8 10 7 6 6 12 14 21 29 30 25 24 24 24 24 23 21 19 16 13 12 14 15 19 19 20 21 21 22 23 25 27 26 26 29 31 31 31
8 6 9 7 8 9 9 8 8 9 8 10 7 7 4 5 15 20 27 31 30 28 25 25 26 26 26 24 21 17 15 16 18 18 17 18 18 19 19 21 23 24 24 27 29 29 29 31 32
6 7 6 9 8 12 6 7 6 9 7 7 10 7 4 4 16 22 28 31 32 31 29 28 28 28 27 25 23 20 18 18 19 18 18 18 19 19 19 20 21 24 26 29 31 32 32 31 31
8 4 7 9 12 10 6 7 9 7 7 8 10 9 6 6 15 26 32 35 36 34 33 30 28 28 27 25 23 22 21 20 19 18 18 19 19 20 21 23 25 27 28 30 32 34 35 35 35
12 7 17 10 9 5 3 5 7 5 8 10 14 17 16 17 23 30 34 35 35 36 32 30 29 29 28 26 24 23 21 20 20 20 20 21 22 23 25 27 29 30 30 32 33 34 36 37 37
14 12 9 8 18 10 6 6 7 7 7 21 14 13 14 19 28 34 33 32 29 28 31 30 29 30 29 29 27 25 24 23 23 22 23 24 26 28 30 32 34 34 34 34 35 36 37 37 37
6 19 13 5 10 8 8 7 9 22 16 14 15 18 17 19 23 28 28 27 32 34 32 31 32 30 30 28 27 25 25 25 25 26 27 29 30 32 35 37 39 39 39 38 37 37 38 39 38
7 7 12 19 20 19 14 20 16 28 29 25 20 24 28 29 30 29 32 35 36 37 36 34 33 32 30 29 26 25 25 26 27 28 30 31 33 35 38 41 42 42 42 43 42 41 40 39 37
8 8 14 17 23 20 12 6 11 4 10 24 21 15 11 13 20 29 37 38 40 39 39 39 36 34 32 30 28 27 26 26 27 30 32 34 35 37 39 40 41 43 44 46 45 43 41 38 34
3 9 9 17 15 13 14 11 20 32 19 12 27 17 10 9 11 18 28 36 39 40 40 42 40 39 37 34 31 29 28 28 30 32 34 36 38 39 41 42 41 42 43 43 43 41 38 35 31
4 3 6 3 12 7 18 15 9 8 27 27 18 11 11 14 19 24 29 31 35 42 44 44 47 44 41 37 34 31 29 29 32 35 38 39 41 42 43 43 42 41 41 39 37 35 31 31 28
4 11 11 12 17 8 12 10 6 20 12 9 13 17 20 20 24 31 35 38 39 39 44 48 50 49 45 41 36 33 32 33 36 38 40 43 45 46 45 42 41 41 40 37 33 31 30 25 23
15 10 9 10 8 8 8 21 14 22 17 15 12 12 11 10 9 12 20 31 37 42 46 47 50 50 46 41 37 35 35 36 40 43 44 45 46 44 44 44 43 41 38 35 33 29 27 24 20
10 10 12 8 6 7 14 14 28 18 21 19 16 13 11 9 5 3 1 5 17 29 38 44 47 47 44 40 37 37 37 41 44 47 49 46 43 42 41 42 44 41 37 33 30 26 23 22 20
8 10 10 3 6 4 8 21 24 19 16 24 31 23 18 15 10 6 7 9 8 14 25 34 40 41 39 38 38 38 41 45 47 46 43 42 43 43 44 44 42 40 35 30 27 24 20 19 17
18 30 10 9 6 2 8 18 13 6 8 18 23 25 22 20 17 12 8 8 9 11 15 23 29 33 35 36 39 43 47 48 44 43 45 46 47 46 45 41 38 35 31 27 25 22 18 15 13
27 17 13 11 8 9 1 13 11 8 11 12 29 30 27 25 20 16 13 12 12 13 16 20 26 31 36 40 44 45 45 46 47 47 47 47 47 46 42 39 36 32 30 26 24 22 20 17 13
4 9 10 7 8 4 7 2 9 4 11 21 22 36 32 27 21 16 15 14 15 17 21 25 30 33 36 39 41 44 45 47 47 46 44 43 43 42 38 35 33 30 28 27 26 24 21 18 16
22 13 13 9 5 7 15 14 11 12 14 6 17 41 38 29 19 17 16 15 17 20 23 27 30 32 36 40 43 42 41 42 42 41 40 39 38 37 34 32 30 29 28 27 26 24 22 19 17
11 17 5 4 7 13 2 4 27 9 11 8 20 47 39 26 21 17 15 16 18 20 23 26 29 31 36 38 40 39 37 38 37 35 34 34 34 33 32 32 32 32 30 29 27 25 22 21 21
23 15 12 16 11 4 2 15 13 7 4 7 32 43 33 25 17 12 13 15 19 22 24 26 28 30 34 35 35 37 35 34 33 33 33 33 33 34 36 37 37 35 33 32 29 26 24 24 24
11 10 8 13 3 1 9 13 17 9 2 3 25 33 30 23 16 11 7 8 11 14 19 24 27 28 29 31 33 34 34 34 34 36 35 35 36 36 39 39 36 34 34 32 29 27 26 27 27
7 17 8 3 13 9 8 11 12 11 17 14 11 28 29 23 17 11 7 4 7 12 17 21 25 26 26 29 31 33 32 33 32 33 33 34 35 35 34 31 30 31 31 29 29 27 26 27 22
10 9 6 8 6 10 4 12 11 12 24 30 18 38 34 25 18 12 7 3 5 10 15 20 24 25 23 26 27 27 26 28 27 28 29 29 28 28 29 29 30 28 26 27 26 25 24 22 21
3 9 10 9 11 1 2 11 2 9 7 18 32 38 32 24 18 11 5 6 9 12 15 19 22 23 24 23 23 23 22 24 23 22 22 23 22 24 26 28 27 24 23 24 27 25 24 21 13
Wind_Direction_850mb
169 154 147 142 77 65 253 254 264 242 235 189 148 161 194 146 169 205 194 172 170 178 183 193 198 196 195 188 188 174 173 200 228 256 281 282 280 277 266 244 223 221 218 191 205 214 210 216 227
162 152 148 123 96 101 262 246 231 226 220 152 143 155 180 214 185 219 158 175 172 181 188 196 193 187 185 191 186 182 181 193 236 281 309 316 309 308 303 281 254 241 241 249 246 240 252 248 240
165 161 157 101 128 187 217 214 231 278 198 185 204 222 229 197 187 180 177 175 173 182 188 195 193 189 188 188 187 189 194 198 217 254 289 307 321 320 315 300 284 271 261 262 267 261 254 253 247
165 157 71 107 219 252 207 214 214 286 207 217 216 264 224 199 166 179 192 179 178 184 193 195 193 191 191 189 188 193 196 208 234 268 291 305 308 308 306 300 293 287 282 276 274 276 261 251 259
175 141 75 206 247 258 246 249 249 245 259 194 185 243 227 216 210 195 188 183 184 188 193 195 195 195 195 196 197 205 216 238 264 287 295 300 301 300 300 298 296 293 289 285 281 275 276 275 268
166 108 93 236 248 254 262 230 218 220 222 183 189 185 223 202 184 184 179 184 187 203 204 204 201 201 202 207 211 219 234 256 272 283 288 290 291 295 297 295 292 291 288 285 279 276 273 273 273
152 104 203 211 249 291 235 183 211 204 192 215 178 167 208 206 186 181 180 188 197 202 209 208 208 209 212 219 226 235 249 264 274 280 284 290 293 294 293 294 293 290 289 287 285 283 278 275 272
199 100 162 230 211 262 201 194 199 188 210 175 191 221 169 153 196 192 191 196 202 208 211 212 214 215 220 228 236 246 256 266 274 279 283 285 292 298 299 298 294 292 291 288 285 283 280 277 273
172 77 217 237 161 241 190 181 190 181 177 191 213 215 230 265 214 204 202 204 208 213 215 215 219 223 227 234 242 250 257 262 266 273 280 286 290 293 296 299 299 297 291 286 284 282 280 277 274
152 162 219 210 199 239 237 222 193 192 177 217 224 243 257 251 228 220 217 216 217 219 221 224 226 229 233 241 249 255 261 265 270 276 282 287 291 294 297 299 299 298 295 291 288 284 283 280 276
177 204 201 249 221 208 201 257 231 168 231 234 223 223 255 242 223 222 224 227 235 232 229 231 232 236 240 245 249 255 261 268 274 280 284 290 295 299 301 303 304 302 298 293 290 288 285 282 279
203 231 218 208 209 196 204 214 245 224 226 254 222 248 243 239 229 226 228 236 236 234 235 233 233 235 240 244 249 257 266 273 276 280 285 289 293 298 303 304 304 302 299 296 292 288 284 282 279
228 249 204 236 232 234 238 238 237 257 254 243 228 252 256 250 248 244 241 242 241 240 239 238 238 239 241 245 252 262 268 272 275 278 281 283 287 292 297 300 302 301 300 299 297 293 286 281 277
193 223 265 266 248 237 208 246 195 247 155 198 203 197 201 226 238 236 239 242 244 245 240 239 241 241 242 244 250 256 261 268 275 281 283 284 286 290 293 295 298 299 300 300 299 296 291 286 279
184 297 294 234 232 224 190 260 229 232 210 235 196 163 165 203 227 234 236 236 238 245 244 241 240 240 240 242 249 255 262 272 281 285 285 285 287 291 294 296 297 298 300 299 297 295 293 291 289
166 103 266 184 153 207 165 254 173 171 178 163 183 244 251 246 250 244 236 234 232 232 230 235 235 237 239 242 247 252 262 274 283 288 288 289 290 292 295 297 299 300 301 299 295 291 288 288 288
254 230 206 305 196 146 189 263 160 165 157 192 251 272 273 264 252 246 241 237 231 228 224 226 230 232 234 238 244 251 262 275 284 289 290 292 293 294 296 297 299 300 300 298 295 292 290 287 283
198 211 236 220 194 181 209 255 257 223 256 278 267 261 252 244 234 238 243 241 238 232 226 219 224 227 231 236 243 252 263 276 286 290 291 291 290 291 294 296 297 298 297 294 294 293 293 292 290
158 180 184 202 163 196 232 251 262 242 250 246 238 219 198 180 159 118 104 212 222 222 218 216 220 224 230 237 245 254 266 278 285 289 291 290 289 289 290 292 295 295 293 290 287 287 288 292 297
170 179 210 264 150 192 317 268 256 251 232 222 211 200 190 177 162 130 92 93 135 186 200 208 214 223 231 239 249 260 272 279 284 286 284 285 285 286 288 289 289 288 287 286 284 284 288 293 297
216 222 174 214 162 128 315 271 227 225 183 186 190 189 186 185 181 171 148 124 124 148 180 202 215 225 235 245 257 268 275 279 280 280 281 282 283 283 284 284 282 281 279 278 277 278 281 280 285
225 193 162 156 136 238 23 281 272 207 218 203 191 187 182 177 173 172 178 191 199 202 205 214 225 236 247 256 264 269 272 276 278 279 279 278 278 279 278 277 275 272 272 270 269 272 273 276 271
245 82 127 106 109 26 192 284 262 110 244 209 195 191 182 176 176 184 197 208 216 222 231 239 246 252 258 263 268 272 275 277 279 280 278 275 274 273 271 269 267 266 266 266 265 266 268 268 269
152 88 63 56 101 227 193 176 242 190 213 162 167 188 182 183 193 198 208 216 226 234 242 249 255 261 266 271 273 276 278 278 279 278 276 273 270 268 267 264 261 262 264 262 262 262 263 265 265
148 134 135 179 194 230 299 165 249 240 216 203 173 177 179 187 189 189 205 223 237 244 250 256 262 267 270 272 275 276 276 278 279 276 274 270 267 265 263 262 261 262 262 258 258 259 260 263 264
175 185 170 194 190 187 68 229 250 215 137 130 170 167 174 182 188 204 222 230 238 247 256 260 265 270 272 273 273 274 275 276 277 276 274 271 268 264 263 265 263 261 257 255 255 256 260 265 270
174 199 112 101 54 112 202 273 278 149 75 135 154 169 175 175 174 177 188 218 231 243 254 261 266 267 269 270 272 274 275 277 275 274 273 272 270 269 268 265 262 257 252 251 254 258 263 270 273
194 144 126 170 158 208 244 276 247 203 199 193 194 184 174 172 169 164 168 206 252 264 266 271 270 269 271 271 272 272 274 275 274 276 277 274 274 272 270 261 255 252 250 251 254 259 265 268 270
154 172 168 111 163 188 213 251 214 214 187 188 192 184 176 175 175 174 176 216 283 290 287 282 277 275 273 272 272 272 271 274 278 279 278 275 272 273 266 261 256 256 256 254 256 257 257 257 251
92 148 159 169 189 216 108 277 172 245 244 179 184 177 175 176 182 188 216 278 292 294 300 294 286 281 274 273 273 273 275 280 284 280 279 278 279 275 271 261 255 257 260 258 255 251 242 234 228